Home > Weather > Bad Radkersburg > Past weeks

Flag for Austria Past Weather in Bad Radkersburg, Styria, Austria — Yesterday and Last 2 Weeks

Now
77 °F

Mild.


Feels Like: 78 °F
Forecast: 67 / 81 °F
Wind: 2 mph from North

Location: Murska Sobota

Current Time: Jul 24, 2016 at 10:30:00 PM

Latest Report: Jul 24, 2016 at 9:00 PM


Visibility: N/A

Pressure: 30.00 "Hg

Humidity: 77%

Dew Point: 69 °F

Location of Bad RadkersburgLocation

Past Weather in Bad Radkersburg — Graph

°F

Bad Radkersburg Temperature Yesterday

Maximum temperature yesterday: 87 °F (at 4:00 PM)
Minimum temperature yesterday: 66 °F (at 6:00 AM)
Average temperature yesterday: 77 °F

High & Low Weather Summary for the Past Weeks

 TemperatureHumidityPressure
High90 °F (Jul 11, 4:00 PM)99% (Jul 13, 8:00 PM)30.17 "Hg (Jul 13, 8:00 PM)
Low55 °F (Jul 15, 6:00 AM)37% (Jul 14, 5:00 PM)29.70 "Hg (Jul 14, 5:00 AM)
Average72 °F71%30.00 "Hg
* Reported Jul 9 9:00 PM — Jul 24 9:00 PM, Bad Radkersburg, Weather by CustomWeather, © 2016

Note: Actual official high and low records may vary slightly from our data, if they occured in-between our weather recording intervals... More about our weather records

Advertising

Bad Radkersburg Weather History for the Previous 24 Hours

Scroll right to see more
 ConditionsComfort  
Time TempWeatherWind HumidityBarometerVisibility
9:00 PM
Sun, Jul 24
77 °FMild.2 mph77%30.00 "HgN/A
8:00 PM81 °FPartly sunny.2 mph65%29.99 "Hg12 mi
7:00 PM84 °FWarm.3 mph58%29.97 "HgN/A
6:00 PM85 °FWarm.1 mph54%29.98 "HgN/A
5:00 PM85 °FWarm.3 mph57%29.99 "HgN/A
4:00 PM85 °FWarm.5 mph57%29.97 "HgN/A
3:00 PM84 °FPartly sunny.3 mph58%29.99 "Hg12 mi
2:00 PM85 °FScattered clouds.3 mph62%30.01 "Hg12 mi
12:00 PM82 °FWarm.2 mph65%30.01 "HgN/A
11:00 AM80 °FWarm.3 mph70%30.02 "HgN/A
10:00 AM79 °FWarm.3 mph71%30.01 "HgN/A
9:00 AM77 °FWarm.3 mph78%30.01 "HgN/A
8:00 AM73 °FPassing clouds.2 mph87%30.00 "Hg6 mi
7:00 AM69 °FPassing clouds.2 mph95%29.99 "Hg6 mi
6:00 AM67 °FMild.1 mph96%29.99 "HgN/A
5:00 AM68 °FMild.1 mph97%29.99 "HgN/A
4:00 AM68 °FMild.1 mph95%29.98 "HgN/A
3:00 AM69 °FMild.1 mph94%29.99 "HgN/A
2:00 AM70 °FMild.1 mph92%29.98 "HgN/A
1:00 AM71 °FMild.1 mph91%29.98 "HgN/A
12:00 AM73 °FMild.1 mph89%29.97 "HgN/A
11:00 PM
Sat, Jul 23
74 °FMild.1 mph86%29.98 "HgN/A
10:00 PM76 °FMild.1 mph83%29.97 "HgN/A
Weather by CustomWeather, © 2016

See weather overviewHow to use our weather pages